Wayne, NE

12:07 AM CDT on August 24, 2017 (GMT -0500)
Wayne Municipal

Weather History for KLCG - March, 2013

Change the Weather History Date:

Saturday, March 30, 2013

  Actual Average (KOFK) Record (KOFK)
Temperature  
Mean Temperature 50 °F -  
Max Temperature 62 °F 55 °F 87 °F (1968)
Min Temperature 37 °F 30 °F 10 °F (1944)
Degree Days  
Heating Degree Days 15    
Moisture  
Dew Point 42 °F    
Average Humidity 79    
Maximum Humidity 100    
Minimum Humidity 35    
Precipitation  
Precipitation 0.13 in - - ()
Sea Level Pressure  
Sea Level Pressure 29.96 in    
Wind  
Wind Speed 6 mph (NNW)    
Max Wind Speed 20 mph    
Max Gust Speed 24 mph    
Visibility 8 miles    
Events Fog , Rain , Thunderstorm    
Averages and records for this station are not official NWS values.
T = Trace of Precipitation, MM = Missing Value Source: NWS Daily Summary

Daily Weather History Graph

Daily Weather History Graph

Search for Another Location

Airport or City:

Trip Planner

Search our weather history database for the weather conditions in past years. The results will help you decide how hot, cold, wet, or windy it might be!

Date:

Astronomy

Mar. 30, 2013 Rise Set
Actual Time 7:13 AM CDT 7:51 PM CDT
Civil Twilight 6:45 AM CDT 8:20 PM CDT
Nautical Twilight 6:11 AM CDT 8:53 PM CDT
Astronomical Twilight 5:37 AM CDT 9:28 PM CDT
Moon No Moon Rise 9:05 AM CDT (3/30)
Length of Visible Light 13h 34m
Length of Day
12h 38m
Waning Gibbous, 86% of the Moon is Illuminated
Mar 30
Waning Gibbous
Apr 2
Last Quarter
Apr 10
New
Apr 18
First Quarter
Apr 25
Full

Hourly Weather History & Observations

Time (CDT) Temp. Windchill Dew Point Humidity Pressure Visibility Wind Dir Wind Speed Gust Speed Precip Events Conditions
12:15 AM 47.8 °F - 46.8 °F 96% 30.03 in 7.0 mi SSE 3.5 mph - N/A   Overcast
12:35 AM 48.6 °F - 46.9 °F 94% 30.03 in 10.0 mi Calm Calm - N/A   Overcast
12:55 AM 47.7 °F - 46.4 °F 95% 30.03 in 7.0 mi Calm Calm - 0.01 in Rain Rain
1:35 AM 47.7 °F - 46.9 °F 97% 30.03 in 3.0 mi Calm Calm - 0.10 in Rain Light Rain
1:55 AM 48.7 °F - 45.7 °F 89% 30.03 in 10.0 mi SSE 11.5 mph - 0.10 in   Light Drizzle
2:15 AM 48.6 °F - 45.3 °F 89% 30.01 in 10.0 mi SE 11.5 mph - N/A   Overcast
2:35 AM 48.7 °F - 44.1 °F 84% 29.98 in 10.0 mi SE 10.4 mph - N/A   Light Drizzle
2:55 AM 47.7 °F - 43.7 °F 86% 29.98 in 10.0 mi SSE 8.1 mph - N/A Rain , Thunderstorm Light Thunderstorms and Rain
3:15 AM 47.1 °F - 43.0 °F 86% 29.98 in 10.0 mi SSE 6.9 mph - N/A   Mostly Cloudy
3:35 AM 46.0 °F 43.1 °F 43.5 °F 91% 29.97 in 10.0 mi SSE 5.8 mph - N/A Thunderstorm Mostly Cloudy
3:55 AM 46.0 °F - 44.1 °F 93% 29.96 in 10.0 mi Calm Calm - N/A   Overcast
4:15 AM 45.9 °F 42.9 °F 43.7 °F 92% 29.96 in 10.0 mi South 5.8 mph - N/A   Mostly Cloudy
4:35 AM 43.9 °F 40.5 °F 42.4 °F 95% 29.95 in 7.0 mi South 5.8 mph - N/A Thunderstorm Scattered Clouds
4:55 AM 43.0 °F 41.3 °F 41.9 °F 96% 29.95 in 7.0 mi SE 3.5 mph - N/A   Scattered Clouds
5:15 AM 43.0 °F 40.3 °F 42.1 °F 97% 29.95 in 7.0 mi SE 4.6 mph - N/A   Clear
5:35 AM 41.9 °F 39.0 °F 41.0 °F 97% 29.95 in 5.0 mi SSE 4.6 mph - N/A   Clear
5:55 AM 41.4 °F - 40.6 °F 97% 29.95 in 4.0 mi Calm Calm - N/A   Scattered Clouds
6:15 AM 41.0 °F - 40.3 °F 97% 29.95 in 2.5 mi Calm Calm - N/A   Mostly Cloudy
6:35 AM 40.6 °F - 40.1 °F 98% 29.95 in 2.0 mi Calm Calm - N/A   Overcast
6:55 AM 40.1 °F - 39.6 °F 98% 29.96 in 1.5 mi Calm Calm - N/A   Overcast
7:15 AM 39.7 °F - 39.4 °F 99% 29.96 in 0.8 mi Calm Calm - N/A   Overcast
7:35 AM 39.0 °F - 38.5 °F 98% 29.96 in 0.2 mi Calm Calm - N/A Fog Fog
7:55 AM 39.4 °F 36.1 °F 39.2 °F 99% 29.96 in 0.2 mi South 4.6 mph - N/A Fog Fog
8:15 AM 41.0 °F 39.0 °F 40.6 °F 99% 29.96 in 0.2 mi SSW 3.5 mph - N/A Fog Fog
8:35 AM 41.7 °F - 41.4 °F 99% 29.96 in 0.2 mi Calm Calm - N/A Fog Fog
8:55 AM 42.6 °F 40.9 °F 42.3 °F 99% 29.96 in 0.2 mi NW 3.5 mph - N/A Fog Fog
9:15 AM 43.7 °F 42.1 °F 43.7 °F 100% 29.96 in 0.2 mi West 3.5 mph - N/A Fog Fog
9:35 AM 46.9 °F - 46.8 °F 99% 29.96 in 2.5 mi West 6.9 mph - N/A   Overcast
9:55 AM 50.2 °F - 50.0 °F 99% 29.96 in 10.0 mi WNW 11.5 mph - N/A   Scattered Clouds
10:15 AM 51.4 °F - 48.9 °F 91% 29.96 in 10.0 mi NW 16.1 mph - N/A   Mostly Cloudy
10:35 AM 51.6 °F - 46.8 °F 83% 29.96 in 10.0 mi NW 17.3 mph 21.9 mph N/A   Scattered Clouds
10:55 AM 50.2 °F - 44.2 °F 80% 29.97 in 10.0 mi NNW 16.1 mph - N/A   Scattered Clouds
11:15 AM 51.3 °F - 44.8 °F 78% 29.97 in 10.0 mi North 10.4 mph - N/A   Clear
11:35 AM 51.6 °F - 43.7 °F 74% 29.97 in 10.0 mi NNW 13.8 mph 18.4 mph N/A   Scattered Clouds
11:55 AM 53.1 °F - 43.2 °F 69% 29.97 in 10.0 mi NNW 12.7 mph - N/A   Scattered Clouds
12:15 PM 55.0 °F - 44.2 °F 67% 29.97 in 10.0 mi North 9.2 mph 17.3 mph N/A   Clear
12:35 PM 55.9 °F - 43.9 °F 64% 29.97 in 10.0 mi North 10.4 mph - N/A   Clear
12:55 PM 57.4 °F - 44.2 °F 62% 29.96 in 10.0 mi North 11.5 mph 19.6 mph N/A   Clear
1:15 PM 58.8 °F - 43.2 °F 56% 29.96 in 10.0 mi North 11.5 mph - N/A   Clear
1:35 PM 59.0 °F - 41.0 °F 51% 29.96 in 10.0 mi North 11.5 mph 19.6 mph N/A   Clear
1:55 PM 60.1 °F - 40.6 °F 49% 29.96 in 10.0 mi North 12.7 mph 18.4 mph N/A   Clear
2:15 PM 61.3 °F - 40.1 °F 46% 29.96 in 10.0 mi North 17.3 mph 20.7 mph N/A   Clear
2:35 PM 61.2 °F - 40.5 °F 47% 29.96 in 10.0 mi North 12.7 mph - N/A   Clear
2:55 PM 61.3 °F - 38.5 °F 43% 29.95 in 10.0 mi North 15.0 mph 20.7 mph N/A   Clear
3:15 PM 61.9 °F - 38.5 °F 42% 29.94 in 10.0 mi North 13.8 mph 20.7 mph N/A   Clear
3:35 PM 61.0 °F - 37.8 °F 42% 29.94 in 10.0 mi North 13.8 mph 18.4 mph N/A   Clear
3:55 PM 62.2 °F - 37.2 °F 39% 29.94 in 10.0 mi NNW 15.0 mph - N/A   Clear
4:15 PM 60.6 °F - 37.0 °F 42% 29.94 in 10.0 mi NNW 11.5 mph - N/A   Clear
4:35 PM 62.4 °F - 35.1 °F 36% 29.93 in 10.0 mi NNW 10.4 mph - N/A   Clear
4:55 PM 61.9 °F - 34.2 °F 35% 29.93 in 10.0 mi NNW 9.2 mph 17.3 mph N/A   Clear
5:15 PM 61.2 °F - 34.0 °F 36% 29.93 in 10.0 mi NW 10.4 mph - N/A   Clear
5:35 PM 61.7 °F - 35.1 °F 37% 29.93 in 10.0 mi North 9.2 mph - N/A   Clear
5:55 PM 61.5 °F - 34.9 °F 37% 29.92 in 10.0 mi NNW 8.1 mph - N/A   Scattered Clouds
6:15 PM 60.4 °F - 35.8 °F 40% 29.93 in 10.0 mi NNW 8.1 mph - N/A   Mostly Cloudy
6:35 PM 52.7 °F - 43.2 °F 70% 29.97 in 7.0 mi NW 19.6 mph 24.2 mph 0.01 in Rain , Thunderstorm Heavy Thunderstorms and Rain
6:55 PM 50.2 °F - 45.5 °F 84% 29.96 in 10.0 mi NW 10.4 mph - 0.02 in Rain Rain
7:15 PM 51.4 °F - 45.0 °F 79% 29.94 in 10.0 mi Calm Calm - N/A   Light Drizzle
7:35 PM 50.4 °F - 45.0 °F 82% 29.94 in 10.0 mi NNW 3.5 mph - N/A   Scattered Clouds
7:55 PM 48.2 °F - 44.1 °F 86% 29.94 in 10.0 mi NW 3.5 mph - N/A   Clear
8:15 PM 46.4 °F - 43.3 °F 89% 29.95 in 10.0 mi Calm Calm - N/A   Clear
8:35 PM 46.9 °F - 43.5 °F 88% 29.96 in 10.0 mi Calm Calm - N/A   Clear
8:55 PM 44.4 °F 40.0 °F 42.4 °F 93% 29.96 in 10.0 mi WNW 8.1 mph - N/A   Scattered Clouds
9:15 PM 46.9 °F - 43.9 °F 89% 29.95 in 10.0 mi WSW 3.5 mph - N/A   Mostly Cloudy
9:35 PM 45.1 °F - 42.4 °F 90% 29.96 in 10.0 mi Calm Calm - N/A   Mostly Cloudy
9:55 PM 43.7 °F - 41.4 °F 91% 29.97 in 10.0 mi Calm Calm - N/A   Scattered Clouds
10:15 PM 42.8 °F - 40.6 °F 92% 29.97 in 10.0 mi Calm Calm - N/A   Clear
10:35 PM 41.9 °F - 40.5 °F 95% 29.97 in 10.0 mi Calm Calm - N/A   Clear
10:55 PM 40.1 °F - 38.8 °F 95% 29.97 in 10.0 mi Calm Calm - N/A   Clear
11:15 PM 38.5 °F - 37.4 °F 96% 29.97 in 10.0 mi Calm Calm - N/A   Clear
11:35 PM 38.5 °F - 37.0 °F 95% 29.97 in 10.0 mi Calm Calm - N/A   Clear
11:55 PM 37.4 °F - 36.3 °F 96% 29.97 in 10.0 mi Calm Calm - N/A   Clear